Regional Weather Roundup
Issued by NWS

Home | Current Version | Previous Version | Graphics & Text | Print | Product List | Glossary On
Versions: 1 2 3 4 5 6 7 8 9 10 11 12 13 14 15 16 17 18 19 20 21 22 23 24 25 26 27 28 29 30 31 32 33 34 35 36 37 38 39 40 41 42 43 44 45 46 47 48 49 50
854
ASUS45 KTFX 190910
RWRMT
MONTANA REGIONAL WEATHER ROUNDUP
NATIONAL WEATHER SERVICE GREAT FALLS MT
200 AM MST SUN NOV 19 2017

NOTE: "FAIR" INDICATES FEW OR NO CLOUDS BELOW 12000 FEET WITH NO
SIGNIFICANT WEATHER AND/OR OBSTRUCTIONS TO VISIBILITY.

MTZ001>007-043-191000-
WEST OF THE DIVIDE

CITY           SKY/WX    TMP DP  RH WIND       PRES   REMARKS
KALISPELL      FAIR      22  21  96 CALM      30.11F
MISSOULA       FAIR      25  21  85 CALM      30.16F
BUTTE          FAIR      13   6  74 S3        30.12F
MULLAN PASS    FAIR      22  18  85 S8G16     30.03F WCI  12
ANACONDA         N/A     28  10  47 CALM      30.09F
EUREKA           N/A     32  25  74 MISG      30.09F
HAMILTON         N/A     32  16  51 CALM        N/A
LIBBY            N/A     23  23 100 CALM      30.11F
$$

MTZ008-052>055-191000-
SOUTHWEST MONTANA

CITY           SKY/WX    TMP DP  RH WIND       PRES   REMARKS
BOZEMAN        FAIR      18  12  77 S7        30.14S WCI   9
DILLON         FAIR      25  15  66 S9        30.16F WCI  15
W YELLOWSTONE  CLOUDY    12  10  92 CALM      30.26S
ENNIS          CLOUDY    28  16  59 S22G28    30.21F WCI  15
TWIN BRIDGES     N/A     26  13  58 CALM      30.13
$$

MTZ009-010-012-014-046-048-049-054-191000-
EAST SLOPES AND CENTRAL MONTANA

CITY           SKY/WX    TMP DP  RH WIND       PRES   REMARKS
CUT BANK       FAIR      34  16  47 SW23      29.88F WCI  22
GREAT FALLS    FAIR      39  13  34 SW29G41   29.93F WCI  27
MALMSTROM AFB  MOCLDY    39  15  38 SW22      29.95F WCI  28
HELENA         FAIR      27  19  72 SW5       30.09F
BOWMANS CRNR   FAIR      31  15  51 S22G31    29.95F WCI  19
CHOTEAU          N/A     34  16  47 S13G20    29.95F WCI  25
FAIRFIELD      FAIR      35  14  40 S22G29    29.94F WCI  24
POWER          MOCLDY    37  13  37 SW24G31   29.94F WCI  26
RAYNESFORD     MOCLDY    46  10  23 SW28G38   29.93R
ULM            MOCLDY    36  16  43 S8        30.00F WCI  30
$$

MTZ011-013-016-021-045-047-050-051-191000-
NORTH CENTRAL MONTANA

CITY           SKY/WX    TMP DP  RH WIND       PRES   REMARKS
HAVRE          FAIR      33  21  61 SW9       29.92S WCI  25
LEWISTOWN      FAIR      31  15  52 NW5       29.95F
N BAR RANCH    FAIR      25  12  58 SW12      29.97S WCI  14
CHINOOK          N/A     30  21  69 W6        29.92S WCI  24
DENTON         FAIR      38  14  36 SW16      29.91R WCI  29
GEYSER         FAIR      37  15  40 W15       29.93R WCI  27
GRASS RANGE    FAIR      37  12  35 W17       29.92S WCI  28
STANFORD       FAIR      33  12  42 NE10      29.93S WCI  25
WINIFRED       FAIR      33  14  45 SW7       29.93F WCI  27
$$

MTZ017>020-022>027-061-062-191000-
NORTHEAST MONTANA

CITY           SKY/WX    TMP DP  RH WIND       PRES   REMARKS
GLASGOW        FAIR      26  20  77 W3        29.92F
GLENDIVE       FAIR      29  21  72 W6        29.98R WCI  23
JORDAN           N/A     25  20  81 W5        29.96S
SIDNEY         FAIR      22  19  89 VRB3      29.96F
WOLF POINT     FAIR      18  16  92 CALM      29.95F
MALTA          CLEAR     21  18  86 W8        29.93F WCI  12
PLENTYWOOD       N/A     27  19  74 CALM      29.90F
POPLAR           N/A     25  19  80 CALM      29.95S
SCOBEY           N/A     27  13  55 W2        29.88
$$

MTZ028>42-056>058-191000-
SOUTHCENTRAL AND SOUTHEAST MONTANA

CITY           SKY/WX    TMP DP  RH WIND       PRES   REMARKS
BAKER          FAIR      31  21  66 SW9       29.99F WCI  23
BILLINGS       FAIR      38  16  40 W17       30.01F WCI  28
LIVINGSTON     FAIR      35  18  49 W35G47    30.03F WCI  21
MILES CITY     FAIR      27  21  78 SW8       30.00S WCI  19
BIG TIMBER     CLEAR     36  14  41 W32G40    30.03F WCI  22
EKALAKA          N/A     33  15  48 SW6       29.97  WCI  27
FORSYTH          N/A     37  18  44 CALM      30.00S
HARLOWTON      FAIR      35  17  47 W43G51    29.95F WCI  20
LAUREL           N/A     37  14  38 SW16G23   30.03S WCI  28
$$

REGIONAL REPORTS...DAKOTAS

CITY           SKY/WX    TMP DP  RH WIND       PRES   REMARKS
WILLISTON      FAIR      24  20  84 SW8       29.94F WCI  15
MINOT          FAIR      23  18  81 S7        29.91F WCI  15
DICKINSON      FAIR      30  21  69 SW15      29.95F WCI  19
BEACH          FAIR      28  21  74 SW12      29.99F WCI  18
CROSBY         FAIR      28  23  80 SW14      29.89F WCI  17
TIOGA          FAIR      27  25  93 VRB3      29.91F
BISMARCK       FAIR      22  18  85 CALM      30.02S
GRAND FORKS    FAIR      10   7  87 SW7       30.01F WCI  -1
FARGO          FAIR      13   8  81 S6        30.04F WCI   4
BUFFALO SD       N/A     27  18  69 W9        29.95F WCI  18
RAPID CITY     FAIR      25  14  63 W5        30.09F
$$

REGIONAL REPORTS...WYOMING/IDAHO/WASHINGTON

CITY           SKY/WX    TMP DP  RH WIND       PRES   REMARKS
GILLETTE       FAIR      33  17  51 SW17      30.05F WCI  22
SHERIDAN       FAIR      23  18  81 SE3       30.03F
BUFFALO WY     FAIR      31  12  45 S3        30.04S
CODY           FAIR      27  15  61 VRB3      30.09F
YELLOWSTONE LA   N/A     16  13  88 CALM      30.26F
IDAHO FALLS    FAIR      21  19  92 N5        30.32F
SALMON         FAIR      23  19  85 CALM      30.27F
BOISE          FAIR      34  21  59 SE9       30.24F WCI  27
SPOKANE        CLOUDY    31  30  96 CALM      30.09F
$$

REGIONAL REPORTS...ALBERTA

CITY           SKY/WX    TMP DP  RH WIND       PRES   REMARKS
EDMONTON       CLEAR     14  10  85 E3        29.70  VSB 1/8
CALGARY        MOCLDY    36  16  44 W13G22    29.71F WCI  27
LETHBRIDGE     MOCLDY    37  19  48 W21G40    29.83F WCI  27
MEDICINE HAT   CLEAR     25  19  80 SW6       29.84F WCI  18
$$

REGIONAL REPORTS...SASKATCHEWAN

CITY           SKY/WX    TMP DP  RH WIND       PRES   REMARKS
SWIFT CURRENT  CLEAR     28  19  69 W18       29.81R WCI  16
REGINA         MOCLDY    16  12  86 S6        29.82F WCI   7
SASKATOON      MOCLDY    10   7  85 SW7       29.82R WCI   0
$$




USA.gov is the U.S. government's official web portal to all federal, state and local government web resources and services.